sat.trackr.live / text

‹ back to catalog

GONETS-M 15

NORAD 44906 · 2019-096B

PAYLOAD ACTIVE UNKNOWN

§ Identity

Operator
Country
CIS
Launch date
2019-12-26
Launch site
PLMSC
Launch vehicle
Mass (kg)
RCS (m²)

External: N2YO · Heavens-Above · Gunter

§ Orbital elements

Epoch: 2026-05-25T05:11:10.174272Z

Period
115.86 min
Inclination
82.5234°
Eccentricity
0.0014073
Mean motion
12.42870700 rev/d
Perigee alt
1,483.4 km
Apogee alt
1,505.5 km
Semi-major
7,872.6 km
B*
5.9075e-4
RAAN
99.3387°
Arg perigee
223.7349°
Mean anomaly
136.2616°
Rev number
29,079

§ Raw data

GONETS-M 151 44906U 19096B   26145.21608998  .00000092  00000+0  59075-3 0  99982 44906  82.5234  99.3387 0014073 223.7349 136.2616 12.42870700290796

JSON: /api/v1/satellites/44906 · /tle

For live sub-satellite position, see the globe view (requires WebGL).

§ Visibility from observer

Set your observer location to see the next 7 days of passes ≥ 10°. The values pass through the URL so the page stays shareable.

No JS? Fill the form by hand. The geolocation button needs JavaScript.

§ Radio — SatNOGS DB

ModeDescriptionDownlinkUplink
FM UHF Unknown 387.462 MHz

1 transmitter · refreshed weekly from db.satnogs.org